This is the latest recevied weather packets stored in our database for station/object OK1FET-5. If no packets are shown the sender has not sent any weather packets the latest 10 day(s).
| Time | Temp. | Humidity | Pressure | Rain* | Wind** | Luminosity | Snow |
|---|---|---|---|---|---|---|---|
| 1776925341 | 8.33° C | 60% | 1024.3 hPa | - | - | - | - |
| 1776925047 | 8.33° C | 61% | 1024.3 hPa | - | - | - | - |
| 1776924753 | 8.33° C | 62% | 1024.2 hPa | - | - | - | - |
| 1776924458 | 7.78° C | 63% | 1024.2 hPa | - | - | - | - |
| 1776924164 | 7.78° C | 64% | 1024.2 hPa | - | - | - | - |
| 1776923576 | 7.22° C | 64% | 1024.4 hPa | - | - | - | - |
| 1776923282 | 7.22° C | 64% | 1024.4 hPa | - | - | - | - |
| 1776922988 | 7.22° C | 64% | 1024.4 hPa | - | - | - | - |
| 1776922694 | 7.22° C | 64% | 1024.4 hPa | - | - | - | - |
| 1776922400 | 7.22° C | 65% | 1024.5 hPa | - | - | - | - |
| 1776922106 | 7.22° C | 66% | 1024.5 hPa | - | - | - | - |
| 1776921518 | 6.67° C | 67% | 1024.6 hPa | - | - | - | - |
| 1776921225 | 6.67° C | 68% | 1024.6 hPa | - | - | - | - |
| 1776920931 | 6.11° C | 69% | 1024.6 hPa | - | - | - | - |
| 1776920637 | 5.56° C | 71% | 1024.6 hPa | - | - | - | - |
| 1776920343 | 5° C | 72% | 1024.7 hPa | - | - | - | - |
| 1776920049 | 5° C | 74% | 1024.7 hPa | - | - | - | - |
| 1776919756 | 4.44° C | 74% | 1024.7 hPa | - | - | - | - |
| 1776919462 | 3.89° C | 77% | 1024.6 hPa | - | - | - | - |
| 1776918874 | 3.89° C | 76% | 1024.8 hPa | - | - | - | - |
| 1776918580 | 3.89° C | 76% | 1024.8 hPa | - | - | - | - |
| 1776918286 | 3.89° C | 75% | 1024.7 hPa | - | - | - | - |
| 1776917699 | 3.33° C | 76% | 1024.6 hPa | - | - | - | - |
| 1776917405 | 3.33° C | 76% | 1024.6 hPa | - | - | - | - |
| 1776917112 | 3.33° C | 75% | 1024.6 hPa | - | - | - | - |
* Rain since midnight (hover to see other rain measurements)
** Current wind speed in m/s (hover to see current wind gust speed)